ZIYUAN 3-2 (ZY 3-2)     
1 41556U 16033A   19265.83012257  .00000322  00000-0  17395-4 0  9991
2 41556  97.3909 341.3544 0001342 187.0869 283.3764 15.21353872184073
NUSAT-1 (FRESCO)        
1 41557U 16033B   19265.83100434  .00000913  00000-0  36793-4 0  9996
2 41557  97.4157 352.7706 0012664 323.7967  36.2414 15.27380497184765
NUSAT-2 (BATATA)        
1 41558U 16033C   19265.81104269  .00000889  00000-0  33905-4 0  9999
2 41558  97.4187 354.1106 0011714 324.2862  35.7594 15.29292397184827
NUSAT 1 DEB             
1 43427U 16033E   19265.44790391  .00000734  00000-0  76737-4 0  9991
2 43427  97.4615 269.8980 0209520 184.1913 175.7553 14.77796525167753